Current weather by "City, St" or "zip code"  
 

Current Conditions: Albert Whitted Airport, FL

Overcast


81.0 F

Last Updated on Oct 31 2020, 2:53 pm EDT
Humidity: 69%
Wind Speed: NE 10.4 mph
Barometer 30.07 in
Dewpoint: 70.0 F
Visibility: 10.00 mi
Precip: --
Heat Index: 85 F
Wind Chill: NA
Current conditions at:

Albert Whitted Airport, FL (KSPG)

Lat: 27.76852 Lon: 82.62564

Local Radar Image active severe weather and emergency alerts image image weather storm and storm spotter reports image weather observation monitoring service image
Local
Radar
Active
Alerts
Storm Reports Obs
Monitoring

Sign-up For Email & Text Message Weather Alert Notification Services



Advertise Here

Observation History for Albert Whitted Airport, FL


Time Wind
(mph)
Vis
(mi)
Weather Precip (in) Temperature (F) Relative
Humidity
Wind
Chill
(F)
Heat
Index
(F)
Pressure
Air Dwpt altimeter
(in)
sea level
(mb)
Rmks
2:53 pm EDT NE 10.4 10.00 Overcast -- 81.0 70.0 69% NA 85 30.07 1018.3
1:53 pm EDT E 10.4 10.00 Fair -- 82.0 69.1 65% NA 85 30.09 1018.9
12:53 pm EDT NE 9.2 10.00 Fair -- 80.0 69.1 69% NA 83 30.11 1019.6
11:53 am EDT NE 11.5 10.00 Overcast -- 78.0 68.0 71% NA NA 30.13 1020.4
10:53 am EDT E 12.7 10.00 Overcast -- 74.0 66.9 79% NA NA 30.14 1020.6
9:53 am EDT NE 13.8 10.00 Mostly Cloudy -- 72.0 66.9 84% NA NA 30.12 1019.9
8:53 am EDT N 9.2 10.00 Mostly Cloudy -- 69.0 64.9 87% NA NA 30.10 1019.2
7:53 am EDT N 9.2 10.00 Overcast -- 69.0 64.9 87% NA NA 30.08 1018.6
6:53 am EDT N 9.2 10.00 Fair -- 68.0 64.9 90% NA NA 30.07 1018.1
5:53 am EDT NE 13.8 10.00 Fair -- 69.0 64.9 87% NA NA 30.06 1017.7
4:53 am EDT NE 12.7 10.00 Fair -- 69.0 64.0 84% NA NA 30.06 1017.7
3:53 am EDT NE 16.1 10.00 Fair -- 70.0 64.9 84% NA NA 30.07 1018.0
2:53 am EDT NE 16.1 10.00 Fair -- 70.0 64.0 82% NA NA 30.07 1018.3
1:53 am EDT NE 15.0 10.00 Fair -- 70.0 63.0 79% NA NA 30.07 1018.1
12:53 am EDT NE 15.0 10.00 Fair -- 71.0 64.0 79% NA NA 30.07 1018.2
11:53 pm EDT NE 16.1 10.00 Fair -- 72.0 62.1 71% NA NA 30.07 1018.0
10:53 pm EDT N 9.2 10.00 Fair -- 70.0 61.0 73% NA NA 30.05 1017.5
9:53 pm EDT N 11.5 10.00 Fair -- 70.0 61.0 73% NA NA 30.04 1017.0
8:53 pm EDT N 9.2 10.00 Fair -- 70.0 61.0 73% NA NA 30.02 1016.6
7:53 pm EDT N 9.2 10.00 Fair -- 70.0 59.0 68% NA NA 30.01 1016.1
6:53 pm EDT NW 9.2 10.00 Fair -- 71.0 57.0 61% NA NA 29.99 1015.5
5:53 pm EDT NW 12.7 10.00 Fair -- 74.0 57.0 56% NA NA 29.97 1014.9
4:53 pm EDT N 8.1 10.00 Fair -- 75.0 55.0 50% NA NA 29.97 1014.7
3:53 pm EDT N 12.7 10.00 Fair -- 77.0 55.9 48% NA NA 29.96 1014.6

Regional Weather Observation


Tampa, Tampa International Airport, FL (KTPA)

Mostly Cloudy
85.0 F

Albert Whitted Airport, FL (KSPG)

Overcast
81.0 F

Macdill Air Force Base, Fl., FL (KMCF)

Mostly Cloudy
84.0 F

Tampa, Peter O Knight Airport, FL (KTPF)

Rain
84.0 F

Tampa, Vandenberg Airport, FL (KVDF)

Overcast
86.0 F

Plant City, Plant City Municipal Airport, FL (KPCM)

Overcast
84.0 F